Location: General Nathan Twining Observatory
(34.5931°N, 106.8201°W)
Time: 10:50:21
(UTC-06:00)

ADEOS II - Pass Details

Date: 28 June 2018
Orbit: 799 x 802 km, 98.4° (Epoch: 21 September)

Event Time Altitude Azimuth Distance (km) Brightness Sun altitude
Rises 04:46:09 0° 4° (N) 3,318 6.0 -12.8°
Reaches altitude 10° 04:48:35 10° 358° (N) 2,384 5.1 -12.4°
Maximum altitude 04:53:32 43° 288° (WNW) 1,115 2.6 -11.6°
Enters shadow 04:57:45 14° 221° (SW) 2,111 3.6 -10.9°
